Powrót do katalogu

STARLINK-11741

AktywnyŁącznośćVLEO
NORAD 64064·PAYLOAD·🇺🇸 United States

Wystrzelony May 21, 2025 z Cape Canaveral Space Force Station

Loading…

Następne Przeloty (najbliższe 24 godziny)

TLE

ŚwieżeSource: CelesTrak SupGP

Epoka: Sep 14, 2026, 22:41 UTC

1 64064C 25107A   26257.94562500  .00078499  00000+0  60959-3 0  2573
2 64064  43.0013  37.9980 0001662 275.4177 210.0653 15.70804022    14

Śledź STARLINK-11741 w czasie rzeczywistym z AllMySat

Download on the App Store